Flag for U.S.A. Weather past 2 weeks in Grand Rapids, Michigan, U.S.A.

Now
73 °F

Light rain. More clouds than sun.


Feels Like: 77 °F
Forecast: 53 / 75 °F
Wind: 8 mph from East

Location: Kent County International Airport

Current Time: May 24, 2015 at 6:13:38 PM

Latest Report: May 24, 2015 at 4:53 PM


Visibility: 10 mi

Pressure: 30.12 "Hg

Humidity: 50%

Dew point: 53 °F

Location of Grand RapidsLocation

Historic Weather in Grand Rapids — Graph

°F

Grand Rapids temperature yesterday

Maximum temperature yesterday: 77 °F (at 3:53 PM)
Minimum temperature yesterday: 41 °F (at 4:53 AM)
Average temperature yesterday: 61 °F

Past Weeks' High & Low Weather Summary

 TemperatureHumidityPressure
High81 °F (May 17, 3:53 PM)100% (May 16, 12:53 AM)30.47 "Hg (May 16, 12:53 AM)
Low36 °F (May 20, 3:53 AM)22% (May 23, 1:53 PM)29.76 "Hg (May 11, 7:53 PM)
Average58 °F69%30.11 "Hg
* Reported May 9 4:53 PM — May 24 4:53 PM, Grand Rapids, Weather by CustomWeather, © 2015

Note: Actual official high and low records may vary slightly from our data, if they occured in-between our weather recording intervals... More about our weather records

Advertising

Grand Rapids weather history for previous 24 hours

 ConditionsComfort  
Time TempWeatherWind HumidityBarometerVisibility
4:53 PM
Sun, May 24
73 °FLight rain. More clouds than sun.8 mph50%30.12 "Hg10 mi
3:53 PM72 °FMore clouds than sun.6 mph48%30.15 "Hg10 mi
2:53 PM73 °FMore clouds than sun.No wind38%30.18 "Hg10 mi
1:53 PM72 °FLight rain. Mostly cloudy.7 mph52%30.20 "Hg10 mi
12:53 PM72 °FLight rain. Overcast.8 mph49%30.20 "Hg10 mi
11:53 AM71 °FLight rain. Overcast.7 mph53%30.22 "Hg10 mi
10:53 AM71 °FCloudy.7 mph47%30.22 "Hg10 mi
9:53 AM71 °FCloudy.7 mph47%30.21 "Hg10 mi
8:53 AM66 °FBroken clouds.7 mph56%30.22 "Hg10 mi
7:53 AM58 °FBroken clouds.5 mph75%30.22 "Hg10 mi
6:53 AM55 °FPassing clouds.5 mph77%30.23 "Hg10 mi
5:53 AM53 °FPassing clouds.No wind77%30.24 "Hg10 mi
4:53 AM56 °FClear.No wind70%30.22 "Hg10 mi
3:53 AM56 °FPassing clouds.No wind72%30.21 "Hg10 mi
2:53 AM59 °FOvercast.3 mph62%30.21 "Hg10 mi
1:53 AM57 °FPassing clouds.No wind67%30.22 "Hg10 mi
12:53 AM55 °FPassing clouds.3 mph69%30.23 "Hg10 mi
11:53 PM
Sat, May 23
58 °FPassing clouds.No wind62%30.24 "Hg10 mi
10:53 PM59 °FPassing clouds.3 mph58%30.24 "Hg10 mi
9:53 PM65 °FPassing clouds.No wind44%30.23 "Hg10 mi
8:53 PM70 °FPassing clouds.6 mph32%30.23 "Hg10 mi
7:53 PM75 °FScattered clouds.14 mph25%30.23 "Hg10 mi
6:53 PM77 °FScattered clouds.14 mph23%30.24 "Hg10 mi
Weather by CustomWeather, © 2015

See weather overviewHow to use our weather pages